Goodland, KS

6:54 PM MDT on August 16, 2017 (GMT -0600)
Renner-Goodland Municipal

Weather History for KGLD - March, 2013

Change the Weather History Date:

Friday, March 15, 2013

  Actual Average Record
Temperature  
Mean Temperature 63 °F 40 °F  
Max Temperature 80 °F 55 °F 82 °F (1935)
Min Temperature 45 °F 26 °F 2 °F (1912)
Degree Days  
Heating Degree Days 2 25  
Month to date heating degree days 368 400  
Since 1 July heating degree days 4655 4817  
Cooling Degree Days 0 0  
Month to date cooling degree days 0 0  
Year to date cooling degree days 0 0  
Growing Degree Days 12 (Base 50)    
Moisture  
Dew Point 24 °F    
Average Humidity 27    
Maximum Humidity 45    
Minimum Humidity 9    
Precipitation  
Precipitation 0.00 in 0.03 in 1.62 in (1946)
Month to date precipitation 0.21 0.44  
Year to date precipitation 1.06 1.31  
Snow  
Snow 0.00 in 0.20 in - ()
Month to date snowfall 4.7 2.9  
Since 1 July snowfall 27.9 26.9  
Snow Depth 0.00 in    
Sea Level Pressure  
Sea Level Pressure 29.83 in    
Wind  
Wind Speed 11 mph (West)    
Max Wind Speed 25 mph    
Max Gust Speed 33 mph    
Visibility 10 miles    
Events      
T = Trace of Precipitation, MM = Missing Value Source: NWS Daily Summary

Daily Weather History Graph

Daily Weather History Graph

Search for Another Location

Airport or City:

Trip Planner

Search our weather history database for the weather conditions in past years. The results will help you decide how hot, cold, wet, or windy it might be!

Date:

Astronomy

Mar. 15, 2013 Rise Set
Actual Time 6:57 AM MDT 6:54 PM MDT
Civil Twilight 6:30 AM MDT 7:20 PM MDT
Nautical Twilight 5:59 AM MDT 7:52 PM MDT
Astronomical Twilight 5:28 AM MDT 8:23 PM MDT
Moon 8:50 AM MDT (3/15) 11:08 PM MDT (3/15)
Length of Visible Light 12h 49m
Length of Day
11h 56m
Waxing Crescent, 16% of the Moon is Illuminated
Mar 15
Waxing Crescent
Mar 19
First Quarter
Mar 27
Full
Apr 2
Last Quarter
Apr 10
New

Hourly Weather History & Observations

Time (MDT) Temp. Windchill Dew Point Humidity Pressure Visibility Wind Dir Wind Speed Gust Speed Precip Events Conditions
12:53 AM 48.0 °F - 26.1 °F 42% 30.00 in 10.0 mi WSW 11.5 mph - N/A   Clear
1:53 AM 48.0 °F - 26.1 °F 42% 29.98 in 10.0 mi WSW 12.7 mph - N/A   Clear
2:53 AM 48.9 °F - 26.1 °F 41% 29.94 in 10.0 mi WSW 13.8 mph - N/A   Clear
3:53 AM 50.0 °F - 26.1 °F 39% 29.91 in 10.0 mi WSW 13.8 mph - N/A   Clear
4:53 AM 46.9 °F - 26.1 °F 44% 29.90 in 10.0 mi WSW 13.8 mph - N/A   Clear
5:53 AM 46.9 °F - 26.1 °F 44% 29.90 in 10.0 mi WSW 13.8 mph - N/A   Clear
6:53 AM 46.0 °F 40.2 °F 26.1 °F 46% 29.91 in 10.0 mi WSW 12.7 mph - N/A   Clear
7:53 AM 48.0 °F - 27.0 °F 44% 29.93 in 10.0 mi West 12.7 mph - N/A   Clear
8:53 AM 55.0 °F - 27.0 °F 34% 29.91 in 10.0 mi West 12.7 mph - N/A   Clear
9:53 AM 62.1 °F - 28.0 °F 28% 29.88 in 10.0 mi West 9.2 mph - N/A   Clear
10:53 AM 73.0 °F - 24.1 °F 16% 29.84 in 10.0 mi West 10.4 mph - N/A   Clear
11:53 AM 77.0 °F - 15.1 °F 10% 29.80 in 10.0 mi WNW 16.1 mph - N/A   Clear
12:53 PM 79.0 °F - 17.1 °F 10% 29.78 in 10.0 mi WNW 13.8 mph 28.8 mph N/A   Clear
1:53 PM 78.1 °F - 19.0 °F 11% 29.76 in 10.0 mi WNW 21.9 mph 26.5 mph N/A   Clear
2:53 PM 75.9 °F - 19.9 °F 12% 29.74 in 10.0 mi NNW 12.7 mph - N/A   Clear
3:53 PM 75.0 °F - 19.9 °F 13% 29.74 in 10.0 mi WNW 11.5 mph - N/A   Clear
4:53 PM 75.0 °F - 19.0 °F 12% 29.74 in 10.0 mi West 10.4 mph - N/A   Clear
5:53 PM 73.0 °F - 19.9 °F 14% 29.73 in 10.0 mi West 3.5 mph - N/A   Clear
6:53 PM 60.1 °F - 24.1 °F 25% 29.77 in 10.0 mi West 4.6 mph - N/A   Clear
7:53 PM 53.1 °F - 25.0 °F 34% 29.78 in 10.0 mi West 3.5 mph - N/A   Clear
8:53 PM 50.0 °F - 25.0 °F 38% 29.78 in 10.0 mi West 5.8 mph - N/A   Clear
9:53 PM 50.0 °F - 27.0 °F 41% 29.78 in 10.0 mi NW 4.6 mph - N/A   Clear
10:53 PM 48.9 °F - 26.1 °F 41% 29.78 in 10.0 mi NNE 6.9 mph - N/A   Clear
11:53 PM 48.0 °F - 33.1 °F 56% 29.78 in 10.0 mi East 10.4 mph - N/A   Clear